date:2026-06-17T01:54:14+00:00
validtle:1
satid:68540
launchyear:2026
epoch:26094.03836202
epochday:94
tleage:74
tleclassification:U
active:0
name:SWC-1
meananomly:25.8197
meanmotion:1.0261
rightascension:0.0000
declination:0.0000
semimajoraxis:41522.125934547
altitudeatperigee:113
altitudeatapogee:70175
inclination:28.3174
eccentricity:0.84368
argumentofperigree:78.4879
nickname:SWC-1
idesg:26069C  
cosparid:2026-069C
altkm:24508.492588726
velkms:4.0261826878941
velkmh:14494
onumepoch:3
onumnow:79.05
otype:98
otypedesc:Inactive TLE
status:98
timestamp:2026-04-04T00:55:14+00:00
nowjuliandate:2461208.5793355
nowepochdate:26168.0793287037
TLE:
SWC-1
1 68540U 26069C   26094.03836202 -.00012113  68892-4  00000+0 0  9996
2 68540  28.3174 359.0866 8436800  78.4879  25.8197  1.02608558    39